Regional Weather Roundup
Issued by NWS

Home | Current Version | Previous Version | Text Only | Print | Product List | Glossary Off
Versions: 1 2 3 4 5 6 7 8 9 10 11 12 13 14 15 16 17 18 19 20 21 22 23 24 25 26 27 28 29 30 31 32 33 34 35 36 37 38 39 40 41 42 43 44 45 46 47 48 49 50

000
ASUS44 KMEG 150000
RWRTN
TENNESSEE HOURLY STATE WEATHER ROUNDUP
NATIONAL WEATHER SERVICE MEMPHIS TN
600 PM CST THU DEC 14 2017

TNZ002-004-019-021-049-052-054-088>092-150100-
WEST TENNESSEE

CITY           SKY/WX    TMP DP  RH WIND       PRES   REMARKS
MEMPHIS INTL   CLEAR     40  27  59 N7        30.07R
NWS MEMPHIS      N/A     39 N/A N/A MISG        N/A
JACKSON        CLOUDY    39  27  62 N12       30.08R WCI  32
DYERSBURG      CLOUDY    36  26  67 NE8       30.09R WCI  30
$$

TNZ008-025-027-028-033-062-065-066-150100-
NORTH MIDDLE TENNESSEE

CITY           SKY/WX    TMP DP  RH WIND       PRES   REMARKS
NASHVILLE      PTCLDY    34  21  59 NW6       30.08R WCI  29
CLARKSVILLE    CLOUDY    33  20  58 NW5       30.07S WCI  29
SMYRNA         CLEAR     31  23  72 NW8       30.08R WCI  23
CROSSVILLE     CLOUDY    34  24  67 N5        29.97S WCI  30
$$

TNZ061-075-076-078-094-096-097-150100-
SOUTH MIDDLE TENNESSEE

CITY           SKY/WX    TMP DP  RH WIND       PRES   REMARKS
WINCHESTER     CLEAR     36  28  75 N5        30.00R WCI  32
$$

TNZ017-018-042-046-047-150100-
NORTHEAST TENNESSEE

CITY           SKY/WX    TMP DP  RH WIND       PRES   REMARKS
TRI CITIES     PTCLDY    37  26  64 W5        29.98R WCI  33
$$

TNZ012-013-036-069-073-074-150100-
CENTRAL EAST TENNESSEE

CITY           SKY/WX    TMP DP  RH WIND       PRES   REMARKS
KNOXVILLE      CLOUDY    40  30  67 N7        29.97R
OAK RIDGE      CLOUDY    39  29  67 CALM      29.99S
$$

TNZ083-085-099-150100-
SOUTHEAST TENNESSEE

CITY           SKY/WX    TMP DP  RH WIND       PRES   REMARKS
CHATTANOOGA    PTCLDY    47  28  47 CALM      29.96S
$$

SKY/WX REPORTED AS FAIR MEANS FEW OR NO CLOUDS BELOW
12 THOUSAND FEET.





USA.gov is the U.S. government's official web portal to all federal, state and local government web resources and services.